PST,Max TemperatureF,Mean TemperatureF,Min TemperatureF,Max Dew PointF,MeanDew PointF,Min DewpointF,Max Humidity, Mean Humidity, Min Humidity, Max Sea Level PressureIn, Mean Sea Level PressureIn, Min Sea Level PressureIn, Max VisibilityMiles, Mean VisibilityMiles, Min VisibilityMiles, Max Wind SpeedMPH, Mean Wind SpeedMPH, Max Gust SpeedMPH,PrecipitationIn, CloudCover, Events, WindDirDegrees
2012-11-1,69,61,53,58,56,52,100,79,57,30.05,30.01,29.99,10,9,2,10,2,13,0.34,6,Rain,270
2012-11-2,70,59,48,52,49,46,100,77,53,30.09,30.06,30.01,10,5,0,10,2,13,0.00,3,Fog,269
2012-11-3,75,61,47,52,48,43,93,63,33,30.15,30.11,30.07,10,10,10,10,3,16,0.00,0,,62
2012-11-4,79,64,49,52,49,46,93,64,35,30.21,30.16,30.13,10,10,10,15,3,18,0.00,0,,64
2012-11-5,79,64,49,53,51,48,89,64,39,30.17,30.10,30.04,10,10,9,16,5,21,0.00,0,,61
2012-11-6,83,65,47,54,50,46,89,62,34,30.10,30.04,29.99,10,9,5,13,2,16,0.00,0,,78
2012-11-7,73,61,48,54,51,45,93,70,46,30.04,29.99,29.94,10,8,5,18,5,21,0.00,1,,270
2012-11-8,62,54,46,48,43,37,86,66,46,29.96,29.92,29.89,10,10,7,26,11,31,0.01,4,Rain,240
2012-11-9,57,50,42,43,40,36,96,72,47,29.98,29.93,29.90,10,10,7,17,5,21,0.12,4,Rain,264
2012-11-10,59,49,39,40,37,31,89,61,33,30.25,30.10,29.99,10,10,10,13,3,20,0.00,1,,266
2012-11-11,58,46,34,39,36,33,92,68,43,30.38,30.34,30.27,10,10,10,13,3,18,0.00,0,,70
2012-11-12,61,48,35,37,34,32,89,62,35,30.39,30.33,30.26,10,10,10,14,3,17,0.00,0,,66
2012-11-13,68,53,38,40,36,32,79,54,29,30.27,30.18,30.10,10,10,10,15,5,21,0.00,0,,58
2012-11-14,67,55,43,44,41,37,83,63,42,30.13,30.08,30.02,10,10,10,16,4,20,0.00,0,,61
2012-11-15,69,55,41,46,41,37,89,62,35,30.03,30.00,29.94,10,9,6,12,2,15,0.00,0,,72
2012-11-16,67,56,45,55,50,42,100,76,52,30.00,29.94,29.86,10,6,2,12,3,16,0.14,7,Rain,50
2012-11-17,64,59,54,59,55,49,100,84,67,30.00,29.90,29.82,10,6,2,17,7,21,0.33,7,Rain,242
2012-11-18,62,54,46,54,47,39,100,72,43,30.18,30.09,30.00,10,9,2,14,3,17,0.15,5,Rain,222
2012-11-19,68,58,48,48,46,44,89,66,42,30.23,30.19,30.17,10,10,10,13,2,14,0.00,3,,232
2012-11-20,69,58,47,54,50,45,86,71,55,30.17,30.10,30.04,10,10,10,16,7,21,T,5,Rain,171
2012-11-21,66,56,45,57,54,44,100,78,56,30.21,30.12,30.03,10,8,2,14,5,16,0.22,6,Rain,251
2012-11-22,66,54,42,46,42,40,93,68,42,30.25,30.21,30.17,10,10,10,15,2,17,0.00,1,,47
2012-11-23,66,52,38,47,43,37,93,71,48,30.27,30.22,30.17,10,10,10,16,4,20,0.00,0,,60
2012-11-24,69,55,40,48,43,38,93,69,45,30.20,30.11,30.04,10,10,10,13,3,16,0.00,0,,59
2012-11-25,67,53,39,47,43,37,92,70,48,30.03,29.98,29.93,10,10,10,13,2,16,0.00,0,,65
2012-11-26,66,52,38,47,42,37,93,71,48,30.08,30.03,29.98,10,9,4,12,2,14,0.00,0,,65
2012-11-27,63,53,42,50,47,42,100,80,60,30.12,30.08,30.00,10,4,0,10,2,13,0.00,4,Fog,76
2012-11-28,64,56,47,57,51,46,93,80,67,30.05,29.94,29.86,10,7,1,25,4,31,0.43,5,Rain,208
2012-11-29,64,58,52,56,50,44,84,70,55,30.05,29.98,29.89,10,10,10,18,7,25,0.01,6,Rain,176
2012-11-30,62,59,56,58,56,51,93,84,75,30.02,29.90,29.80,10,6,2,24,9,35,1.85,8,Rain,209